FW9093 Weather Reports


Display with metric or nautical units.
time (UTC)temp
F
wind
direction
speed
MPH
gust
MPH
rain 1hr
in
rain 24hr
in
rain mn
in
humidity
%
barometer
mb
20260503042805 57 203 5.0 10.0 0.00 0.00 0.00 41 1011.9
20260503042305 57 198 6.0 9.0 0.00 0.00 0.00 41 1011.9
20260503041805 57 199 3.0 9.0 0.00 0.00 0.00 41 1011.9
20260503041305 57 206 6.0 10.0 0.00 0.00 0.00 41 1011.9
20260503040804 57 192 5.0 10.0 0.00 0.00 0.00 41 1011.9
20260503040305 57 166 5.0 9.0 0.00 0.00 0.00 41 1011.9
20260503035805 56 188 6.0 10.0 0.00 0.00 0.00 41 1011.9
20260503035305 56 197 5.0 8.0 0.00 0.00 0.00 40 1011.9
20260503034806 56 195 6.0 10.0 0.00 0.00 0.00 40 1011.9
20260503034305 56 205 5.0 9.0 0.00 0.00 0.00 40 1011.9
20260503033805 56 197 5.0 10.0 0.00 0.00 0.00 41 1011.9
20260503033305 56 192 6.0 12.0 0.00 0.00 0.00 40 1011.9
20260503032806 56 197 6.0 8.0 0.00 0.00 0.00 40 1011.9
20260503031805 57 194 4.0 8.0 0.00 0.00 0.00 39 1011.9
20260503031305 57 204 3.0 7.0 0.00 0.00 0.00 39 1011.9
20260503030805 57 215 3.0 8.0 0.00 0.00 0.00 40 1011.9
20260503030306 57 197 5.0 8.0 0.00 0.00 0.00 40 1011.9
20260503025805 57 193 6.0 8.0 0.00 0.00 0.00 41 1011.9
20260503025305 57 200 6.0 10.0 0.00 0.00 0.00 40 1011.9
20260503024806 57 176 5.0 7.0 0.00 0.00 0.00 41 1011.9
20260503024305 56 203 3.0 7.0 0.00 0.00 0.00 40 1011.9
20260503023305 56 187 5.0 8.0 0.00 0.00 0.00 41 1011.9
20260503022805 56 201 5.0 8.0 0.00 0.00 0.00 40 1011.9
20260503022305 56 166 5.0 7.0 0.00 0.00 0.00 40 1011.9
20260503021805 56 192 5.0 8.0 0.00 0.00 0.00 40 1011.9
20260503021305 56 180 5.0 8.0 0.00 0.00 0.00 40 1011.9
20260503020805 56 170 5.0 8.0 0.00 0.00 0.00 40 1011.9
20260503015805 57 185 4.0 7.0 0.00 0.00 0.00 39 1011.9
20260503015305 57 157 5.0 7.0 0.00 0.00 0.00 39 1011.9
20260503014805 57 155 5.0 7.0 0.00 0.00 0.00 39 1011.9
20260503014305 57 195 4.0 7.0 0.00 0.00 0.00 38 1011.9
20260503013805 57 192 4.0 7.0 0.00 0.00 0.00 38 1011.9
20260503013305 58 157 4.0 7.0 0.00 0.00 0.00 38 1011.9
20260503012306 58 154 5.0 7.0 0.00 0.00 0.00 37 1011.9
20260503011805 58 183 3.0 6.0 0.00 0.00 0.00 36 1011.9
20260503011305 58 174 3.0 6.0 0.00 0.00 0.00 36 1011.9
20260503010804 58 161 3.0 6.0 0.00 0.00 0.00 36 1011.9
20260503010305 58 205 2.0 6.0 0.00 0.00 0.00 36 1011.9
20260503005805 59 179 4.0 7.0 0.00 0.00 0.00 36 1011.9
20260503005305 59 185 3.0 7.0 0.00 0.00 0.00 35 1011.9
20260503004804 59 198 3.0 7.0 0.00 0.00 0.00 35 1011.9
20260503004305 59 165 3.0 7.0 0.00 0.00 0.00 35 1011.9
20260503003805 60 160 3.0 7.0 0.00 0.00 0.00 34 1011.9
20260503003304 60 180 3.0 7.0 0.00 0.00 0.00 34 1011.9
20260503002805 60 179 4.0 8.0 0.00 0.00 0.00 34 1011.9
20260503002305 60 177 2.0 7.0 0.00 0.00 0.00 33 1011.9
20260503001805 60 185 3.0 6.0 0.00 0.00 0.00 33 1011.9
20260503001305 61 212 3.0 6.0 0.00 0.00 0.00 33 1011.9
20260503000805 60 186 3.0 9.0 0.00 0.00 0.00 32 1011.9
20260503000304 60 192 3.0 6.0 0.00 0.00 0.00 32 1011.9
20260502235805 60 244 3.0 8.0 0.00 0.00 0.00 31 1011.9
20260502235305 60 228 6.0 12.0 0.00 0.00 0.00 31 1011.9
20260502234805 61 184 2.0 6.0 0.00 0.00 0.00 31 1011.9
20260502234305 61 226 2.0 9.0 0.00 0.00 0.00 32 1011.9
20260502233805 61 235 2.0 9.0 0.00 0.00 0.00 31 1011.9
20260502233306 61 207 2.0 6.0 0.00 0.00 0.00 31 1011.9
20260502232805 61 177 5.0 13.0 0.00 0.00 0.00 30 1011.9
20260502232305 61 252 3.0 10.0 0.00 0.00 0.00 30 1011.9
20260502231306 62 186 3.0 6.0 0.00 0.00 0.00 31 1011.9
20260502230805 62 239 5.0 10.0 0.00 0.00 0.00 30 1011.9
20260502230305 61 265 6.0 12.0 0.00 0.00 0.00 31 1011.9
20260502225805 61 201 6.0 12.0 0.00 0.00 0.00 30 1011.9
20260502225305 61 234 6.0 13.0 0.00 0.00 0.00 30 1011.9
20260502224805 61 242 6.0 13.0 0.00 0.00 0.00 30 1011.9
20260502223804 61 207 6.0 16.0 0.00 0.00 0.00 30 1011.9
20260502223305 61 230 7.0 15.0 0.00 0.00 0.00 29 1011.9
20260502222805 61 236 4.0 16.0 0.00 0.00 0.00 30 1011.9
20260502221805 64 235 4.0 17.0 0.00 0.00 0.00 27 1011.9
20260502221305 65 273 6.0 15.0 0.00 0.00 0.00 27 1011.9
20260502220805 65 287 3.0 13.0 0.00 0.00 0.00 28 1011.9
20260502220305 65 234 7.0 17.0 0.00 0.00 0.00 27 1011.9
20260502215805 64 259 7.0 14.0 0.00 0.00 0.00 27 1011.9
20260502215305 63 223 6.0 15.0 0.00 0.00 0.00 27 1011.9
20260502214804 63 238 9.0 18.0 0.00 0.00 0.00 27 1011.9
20260502214305 64 228 7.0 13.0 0.00 0.00 0.00 26 1011.9
20260502213805 64 249 4.0 17.0 0.00 0.00 0.00 27 1011.9
20260502213305 63 226 4.0 18.0 0.00 0.00 0.00 28 1011.9
20260502212805 62 276 5.0 15.0 0.00 0.00 0.00 28 1011.9
20260502212305 63 245 7.0 20.0 0.00 0.00 0.00 27 1011.9